Darstellungsparameter: Aktuell verwendete Einstellungen:
Skalierung der Graphiken ... ?
xyx+y,   Skalierungsfaktor:      Skalierung: Modus: x, Faktor: 1
Darstellungszeitraum ... ?
Vom - - bis: - -   Zeitraum: 16.04.2021 - 16.04.2021
Min/Max/Avg-Anzeige ... ?
Zeige MMA aktuell
Zeige MMA Monat
Zeige MMA alles
Zeige --A aktuell
Zeige --A Monat
Zeige --A alles
Keine MMA-Anzeige
MMA:
Minimum Maximum Average (ber die Originaldaten)
MMA-Basis: 16.04.2021 - 16.04.2021
Quicknavigation für Darstellung... ?
Tage:      1T, 2T, 3T, 5T -1T -2T -3T -5T +1T +2T +3T +5T
Wochen: 1W, 2W, 3W -1W -2W -3W +1W +2W +3W
Monate: 1M, 3M, 6M -1M -3M -6M +1M +3M +6M
Jahre:    1J, 3J, 5J, 10J -1J -3J -5J -10J +1J +3J +5J +10J
Nutze für die Darstellung ... ?
Originaldaten oder Mittelwerte auf ...
Stundenbasis Tagesbasis Wochenbasis
Monatsbasis Jahresbasis      Datenbasis: Original-Daten
Darstellen als:
Statistik (Auto) Statistik J:M      Darstellung:
Zur Graphik,    zurück zur Übersicht aller Sensoren.
 
Tabellarische Datenbersicht: ?
 
Sensor: Nr:Datum:Temp:Abs-Feuchte:Windchill:Wind:
Aussen-T/F 1 16-04-2021 02:00:00 0.2 C 4.42 g/m*3 0.2 C 0 km/h
2 16-04-2021 02:05:00 0.2 C 4.42 g/m*3 0.2 C 0 km/h
3 16-04-2021 02:10:00 0.2 C 4.42 g/m*3 0.2 C 0 km/h
4 16-04-2021 02:15:00 0.2 C 4.47 g/m*3 0.2 C 0 km/h
5 16-04-2021 02:20:00 0.2 C 4.47 g/m*3 0.2 C 0 km/h
6 16-04-2021 02:25:00 0.2 C 4.47 g/m*3 0.2 C 0 km/h
7 16-04-2021 02:30:00 0.3 C 4.5 g/m*3 0.3 C 0 km/h
8 16-04-2021 02:35:00 0.4 C 4.58 g/m*3 0.4 C 0 km/h
9 16-04-2021 02:40:00 0.4 C 4.53 g/m*3 0.4 C 0 km/h
10 16-04-2021 02:45:00 0.6 C 4.65 g/m*3 0.6 C 0 km/h
11 16-04-2021 02:50:00 0.6 C 4.65 g/m*3 0.6 C 0 km/h
12 16-04-2021 02:55:00 0.7 C 4.68 g/m*3 0.7 C 0 km/h
13 16-04-2021 03:00:00 0.8 C 4.71 g/m*3 0.8 C 0 km/h
14 16-04-2021 03:05:00 0.8 C 4.66 g/m*3 0.8 C 0 km/h
15 16-04-2021 03:10:00 0.9 C 4.69 g/m*3 0.9 C 0 km/h
16 16-04-2021 03:15:00 0.9 C 4.74 g/m*3 0.9 C 0 km/h
17 16-04-2021 03:20:00 0.9 C 4.69 g/m*3 0.9 C 0 km/h
18 16-04-2021 03:25:00 1 C 4.72 g/m*3 1 C 0 km/h
19 16-04-2021 03:30:00 1 C 4.72 g/m*3 1 C 0 km/h
20 16-04-2021 03:35:00 1.1 C 4.76 g/m*3 1.1 C 0 km/h
21 16-04-2021 03:40:00 1.1 C 4.76 g/m*3 1.1 C 1.6 km/h
22 16-04-2021 03:45:00 1.2 C 4.79 g/m*3 1.2 C 0 km/h
23 16-04-2021 03:50:00 1.2 C 4.79 g/m*3 1.2 C 0 km/h
24 16-04-2021 03:55:00 1.3 C 4.82 g/m*3 1.3 C 0 km/h
25 16-04-2021 04:00:00 1.3 C 4.82 g/m*3 1.3 C 0 km/h
Sensor: Nr:Datum:Temp:Abs-Feuchte:Windchill:Wind:
Aussen-T/F 26 16-04-2021 04:05:00 1.3 C 4.82 g/m*3 1.3 C 0 km/h
27 16-04-2021 04:10:00 1.4 C 4.85 g/m*3 1.4 C 0 km/h
28 16-04-2021 04:15:00 1.4 C 4.85 g/m*3 1.4 C 0 km/h
29 16-04-2021 04:20:00 1.4 C 4.85 g/m*3 1.4 C 0 km/h
30 16-04-2021 04:25:00 1.4 C 4.85 g/m*3 1.4 C 0 km/h
31 16-04-2021 04:30:00 1.4 C 4.85 g/m*3 1.4 C 0 km/h
32 16-04-2021 04:35:00 1.5 C 4.89 g/m*3 1.5 C 0 km/h
33 16-04-2021 04:40:00 1.5 C 4.89 g/m*3 1.5 C 1.6 km/h
34 16-04-2021 04:45:00 1.5 C 4.89 g/m*3 1.5 C 0 km/h
35 16-04-2021 04:50:00 1.6 C 4.92 g/m*3 1.6 C 0 km/h
36 16-04-2021 04:55:00 1.6 C 4.87 g/m*3 1.6 C 0 km/h
37 16-04-2021 05:00:00 1.6 C 4.87 g/m*3 1.6 C 0 km/h
38 16-04-2021 05:05:00 1.6 C 4.87 g/m*3 1.6 C 0 km/h
39 16-04-2021 05:10:00 1.6 C 4.87 g/m*3 1.6 C 0 km/h
40 16-04-2021 05:15:00 1.6 C 4.87 g/m*3 1.6 C 0 km/h
41 16-04-2021 05:20:00 1.6 C 4.87 g/m*3 1.6 C 0 km/h
42 16-04-2021 05:25:00 1.6 C 4.87 g/m*3 1.6 C 0 km/h
43 16-04-2021 05:30:00 1.6 C 4.87 g/m*3 1.6 C 0 km/h
44 16-04-2021 05:35:00 1.6 C 4.87 g/m*3 1.6 C 0 km/h
45 16-04-2021 05:40:00 1.5 C 4.83 g/m*3 1.5 C 0 km/h
46 16-04-2021 05:45:00 1.5 C 4.83 g/m*3 1.5 C 0 km/h
47 16-04-2021 05:50:00 1.4 C 4.8 g/m*3 1.4 C 0 km/h
48 16-04-2021 05:55:00 1.5 C 4.83 g/m*3 1.5 C 0 km/h
49 16-04-2021 06:00:00 1.5 C 4.83 g/m*3 1.5 C 0 km/h
50 16-04-2021 06:05:00 1.6 C 4.92 g/m*3 1.6 C 0 km/h
Sensor: Nr:Datum:Temp:Abs-Feuchte:Windchill:Wind:
Aussen-T/F 51 16-04-2021 06:10:00 1.6 C 4.87 g/m*3 1.6 C 0 km/h
52 16-04-2021 06:15:00 1.6 C 4.92 g/m*3 1.6 C 0 km/h
53 16-04-2021 06:20:00 1.7 C 4.9 g/m*3 1.7 C 0 km/h
54 16-04-2021 06:25:00 1.7 C 4.9 g/m*3 1.7 C 0 km/h
55 16-04-2021 06:30:00 1.7 C 4.9 g/m*3 1.7 C 0 km/h
56 16-04-2021 06:35:00 1.7 C 4.9 g/m*3 1.7 C 1.6 km/h
57 16-04-2021 06:40:00 1.7 C 4.9 g/m*3 1.7 C 0 km/h
58 16-04-2021 06:45:00 1.7 C 4.9 g/m*3 1.7 C 0 km/h
59 16-04-2021 06:50:00 1.7 C 4.9 g/m*3 1.7 C 0 km/h
60 16-04-2021 06:55:00 1.7 C 4.9 g/m*3 1.7 C 0 km/h
61 16-04-2021 07:00:00 1.7 C 4.95 g/m*3 1.7 C 0 km/h
62 16-04-2021 07:05:00 1.7 C 4.95 g/m*3 1.7 C 0 km/h
63 16-04-2021 07:10:00 1.7 C 4.95 g/m*3 1.7 C 0 km/h
64 16-04-2021 07:15:00 1.8 C 4.99 g/m*3 1.8 C 0 km/h
65 16-04-2021 07:20:00 1.8 C 4.99 g/m*3 1.8 C 0 km/h
66 16-04-2021 07:25:00 1.9 C 5.02 g/m*3 1.9 C 0 km/h
67 16-04-2021 07:30:00 1.9 C 5.02 g/m*3 1.9 C 0 km/h
68 16-04-2021 07:35:00 2 C 5.06 g/m*3 2 C 0 km/h
69 16-04-2021 07:40:00 2.1 C 5.09 g/m*3 2.1 C 0 km/h
70 16-04-2021 07:45:00 2.2 C 5.13 g/m*3 2.2 C 0 km/h
71 16-04-2021 07:50:00 2.2 C 5.13 g/m*3 2.2 C 0 km/h
72 16-04-2021 07:55:00 2.2 C 5.07 g/m*3 2.2 C 0 km/h
73 16-04-2021 08:00:00 2.2 C 5.07 g/m*3 2.2 C 0 km/h
74 16-04-2021 08:05:00 2.2 C 5.07 g/m*3 2.2 C 0 km/h
75 16-04-2021 08:10:00 2.3 C 5.1 g/m*3 2.3 C 0 km/h
Sensor: Nr:Datum:Temp:Abs-Feuchte:Windchill:Wind:
Aussen-T/F 76 16-04-2021 08:15:00 2.3 C 5.16 g/m*3 2.3 C 0 km/h
77 16-04-2021 08:20:00 2.4 C 5.2 g/m*3 2.4 C 0 km/h
78 16-04-2021 08:25:00 2.6 C 5.21 g/m*3 2.6 C 0 km/h
79 16-04-2021 08:30:00 2.7 C 5.24 g/m*3 2.7 C 0 km/h
80 16-04-2021 08:35:00 2.9 C 5.32 g/m*3 2.9 C 0 km/h
81 16-04-2021 08:40:00 3.1 C 5.33 g/m*3 3.1 C 0 km/h
82 16-04-2021 08:45:00 3.3 C 5.4 g/m*3 3.3 C 1.6 km/h
83 16-04-2021 08:50:00 3.4 C 5.44 g/m*3 3.4 C 0 km/h
84 16-04-2021 08:55:00 3.7 C 5.48 g/m*3 3.7 C 0 km/h
85 16-04-2021 09:00:00 3.8 C 5.46 g/m*3 3.8 C 1.6 km/h
86 16-04-2021 09:05:00 4 C 5.4 g/m*3 4 C 0 km/h
87 16-04-2021 09:10:00 4.2 C 5.35 g/m*3 4.2 C 3.2 km/h
88 16-04-2021 09:15:00 4.3 C 5.32 g/m*3 4.3 C 1.6 km/h
89 16-04-2021 09:20:00 4.6 C 5.29 g/m*3 2.64 C 8.1 km/h
90 16-04-2021 09:25:00 4.7 C 5.13 g/m*3 2.76 C 8.1 km/h
91 16-04-2021 09:30:00 4.9 C 5.13 g/m*3 2.61 C 9.7 km/h
92 16-04-2021 09:35:00 5 C 5.1 g/m*3 2.72 C 9.7 km/h
93 16-04-2021 09:40:00 5.2 C 5.1 g/m*3 3.34 C 8.1 km/h
94 16-04-2021 09:45:00 5.3 C 5.13 g/m*3 2.75 C 11.3 km/h
95 16-04-2021 09:50:00 5.3 C 5.06 g/m*3 3.46 C 8.1 km/h
96 16-04-2021 09:55:00 5.5 C 5.13 g/m*3 3.7 C 8.1 km/h
97 16-04-2021 10:00:00 5.6 C 5.16 g/m*3 3.44 C 9.7 km/h
98 16-04-2021 10:05:00 5.7 C 5.12 g/m*3 3.23 C 11.3 km/h
99 16-04-2021 10:10:00 5.8 C 5.16 g/m*3 3.68 C 9.7 km/h
100 16-04-2021 10:15:00 5.9 C 5.19 g/m*3 4.17 C 8.1 km/h
Sensor: Nr:Datum:Temp:Abs-Feuchte:Windchill:Wind:
Aussen-T/F 101 16-04-2021 10:20:00 6 C 5.15 g/m*3 4.75 C 6.4 km/h
102 16-04-2021 10:25:00 6.1 C 5.19 g/m*3 4.86 C 6.4 km/h
103 16-04-2021 10:30:00 6.3 C 5.18 g/m*3 5.1 C 6.4 km/h
104 16-04-2021 10:35:00 6.4 C 4.99 g/m*3 3.8 C 12.9 km/h
105 16-04-2021 10:40:00 6.5 C 5.02 g/m*3 3.92 C 12.9 km/h
106 16-04-2021 10:45:00 6.7 C 4.94 g/m*3 3.92 C 14.5 km/h
107 16-04-2021 10:50:00 6.9 C 4.93 g/m*3 4.68 C 11.3 km/h
108 16-04-2021 10:55:00 7.1 C 4.91 g/m*3 4.41 C 14.5 km/h
109 16-04-2021 11:00:00 7.2 C 4.87 g/m*3 4.77 C 12.9 km/h
110 16-04-2021 11:05:00 7.3 C 4.98 g/m*3 4.9 C 12.9 km/h
111 16-04-2021 11:10:00 7.4 C 4.85 g/m*3 5.58 C 9.7 km/h
112 16-04-2021 11:15:00 7.4 C 4.77 g/m*3 4.78 C 14.5 km/h
113 16-04-2021 11:20:00 7.4 C 4.93 g/m*3 5.93 C 8.1 km/h
114 16-04-2021 11:25:00 7.6 C 4.99 g/m*3 6.16 C 8.1 km/h
115 16-04-2021 11:30:00 7.7 C 4.87 g/m*3 5.94 C 9.7 km/h
116 16-04-2021 11:35:00 7.8 C 4.82 g/m*3 5.06 C 16.1 km/h
117 16-04-2021 11:40:00 7.9 C 4.76 g/m*3 5.39 C 14.5 km/h
118 16-04-2021 11:45:00 8.1 C 4.83 g/m*3 5.23 C 17.7 km/h
119 16-04-2021 11:50:00 8.1 C 4.83 g/m*3 5.23 C 17.7 km/h
120 16-04-2021 11:55:00 8.2 C 4.77 g/m*3 5.99 C 12.9 km/h
121 16-04-2021 12:00:00 8.2 C 4.77 g/m*3 5.99 C 12.9 km/h
122 16-04-2021 12:05:00 8.2 C 4.86 g/m*3 6.25 C 11.3 km/h
123 16-04-2021 12:10:00 8.2 C 4.77 g/m*3 6.54 C 9.7 km/h
124 16-04-2021 12:15:00 8.2 C 4.86 g/m*3 7.29 C 6.4 km/h
125 16-04-2021 12:20:00 8.2 C 4.69 g/m*3 5.36 C 17.7 km/h
Sensor: Nr:Datum:Temp:Abs-Feuchte:Windchill:Wind:
Aussen-T/F 126 16-04-2021 12:25:00 8.3 C 4.8 g/m*3 5.48 C 17.7 km/h
127 16-04-2021 12:30:00 8.3 C 4.8 g/m*3 5.48 C 17.7 km/h
128 16-04-2021 12:35:00 8.6 C 4.73 g/m*3 6.25 C 14.5 km/h
129 16-04-2021 12:40:00 8.7 C 4.76 g/m*3 5.65 C 20.9 km/h
130 16-04-2021 12:45:00 8.8 C 4.7 g/m*3 6.11 C 17.7 km/h
131 16-04-2021 12:50:00 8.8 C 4.7 g/m*3 6.5 C 14.5 km/h
132 16-04-2021 12:55:00 8.9 C 4.73 g/m*3 6.85 C 12.9 km/h
133 16-04-2021 13:00:00 9.1 C 4.97 g/m*3 6.67 C 16.1 km/h
134 16-04-2021 13:05:00 9.2 C 4.64 g/m*3 6.79 C 16.1 km/h
135 16-04-2021 13:10:00 9.2 C 4.64 g/m*3 6.79 C 16.1 km/h
136 16-04-2021 13:15:00 9.3 C 4.67 g/m*3 7.33 C 12.9 km/h
137 16-04-2021 13:20:00 9.3 C 4.76 g/m*3 7.12 C 14.5 km/h
138 16-04-2021 13:25:00 9.3 C 4.58 g/m*3 7.12 C 14.5 km/h
139 16-04-2021 13:30:00 9.1 C 4.53 g/m*3 7.33 C 11.3 km/h
140 16-04-2021 13:35:00 8.9 C 4.82 g/m*3 8.1 C 6.4 km/h
141 16-04-2021 13:40:00 8.8 C 4.79 g/m*3 6.5 C 14.5 km/h
142 16-04-2021 13:45:00 8.8 C 4.96 g/m*3 7.58 C 8.1 km/h
143 16-04-2021 13:50:00 8.7 C 4.93 g/m*3 7.46 C 8.1 km/h
144 16-04-2021 13:55:00 8.7 C 4.76 g/m*3 7.13 C 9.7 km/h
145 16-04-2021 14:00:00 8.7 C 4.84 g/m*3 7.46 C 8.1 km/h
146 16-04-2021 14:05:00 8.7 C 4.93 g/m*3 7.46 C 8.1 km/h
147 16-04-2021 14:10:00 8.8 C 4.96 g/m*3 7.98 C 6.4 km/h
148 16-04-2021 14:15:00 8.8 C 4.96 g/m*3 8.8 C 3.2 km/h
149 16-04-2021 14:20:00 8.8 C 4.96 g/m*3 8.8 C 4.8 km/h
150 16-04-2021 14:25:00 8.8 C 4.96 g/m*3 8.8 C 4.8 km/h
Sensor: Nr:Datum:Temp:Abs-Feuchte:Windchill:Wind:
Aussen-T/F 151 16-04-2021 14:30:00 8.8 C 5.05 g/m*3 8.8 C 1.6 km/h
152 16-04-2021 14:35:00 8.9 C 5.08 g/m*3 7.69 C 8.1 km/h
153 16-04-2021 14:40:00 8.8 C 4.96 g/m*3 6.97 C 11.3 km/h
154 16-04-2021 14:45:00 8.8 C 5.05 g/m*3 7.25 C 9.7 km/h
155 16-04-2021 14:50:00 8.8 C 4.96 g/m*3 7.98 C 6.4 km/h
156 16-04-2021 14:55:00 8.8 C 5.05 g/m*3 8.8 C 4.8 km/h
157 16-04-2021 15:00:00 8.9 C 5.08 g/m*3 8.9 C 3.2 km/h
158 16-04-2021 15:05:00 8.9 C 5.08 g/m*3 8.9 C 0 km/h
159 16-04-2021 15:10:00 8.9 C 5.08 g/m*3 8.9 C 0 km/h
160 16-04-2021 15:15:00 8.9 C 5.17 g/m*3 8.9 C 0 km/h
161 16-04-2021 15:20:00 8.9 C 5.08 g/m*3 8.9 C 0 km/h
162 16-04-2021 15:25:00 8.9 C 4.99 g/m*3 8.9 C 4.8 km/h
163 16-04-2021 15:30:00 8.9 C 5.08 g/m*3 8.9 C 3.2 km/h
164 16-04-2021 15:35:00 8.9 C 5.08 g/m*3 8.9 C 4.8 km/h
165 16-04-2021 15:40:00 8.9 C 5.08 g/m*3 8.9 C 3.2 km/h
166 16-04-2021 15:45:00 8.9 C 4.99 g/m*3 8.9 C 3.2 km/h
167 16-04-2021 15:50:00 8.9 C 5.08 g/m*3 6.85 C 12.9 km/h
168 16-04-2021 15:55:00 8.9 C 5.08 g/m*3 8.9 C 4.8 km/h
169 16-04-2021 16:00:00 9.1 C 5.23 g/m*3 9.1 C 4.8 km/h
170 16-04-2021 16:05:00 9.2 C 5.09 g/m*3 7.73 C 9.7 km/h
171 16-04-2021 16:10:00 9.2 C 5.09 g/m*3 7.73 C 9.7 km/h
172 16-04-2021 16:15:00 9.2 C 5.09 g/m*3 7.73 C 9.7 km/h
173 16-04-2021 16:20:00 9.3 C 5.21 g/m*3 9.3 C 4.8 km/h
174 16-04-2021 16:25:00 9.5 C 5.46 g/m*3 8.4 C 8.1 km/h
175 16-04-2021 16:30:00 9.6 C 5.31 g/m*3 7.94 C 11.3 km/h
Sensor: Nr:Datum:Temp:Abs-Feuchte:Windchill:Wind:
Aussen-T/F 176 16-04-2021 16:35:00 9.3 C 5.21 g/m*3 7.33 C 12.9 km/h
177 16-04-2021 16:40:00 9.3 C 5.3 g/m*3 7.85 C 9.7 km/h
178 16-04-2021 16:45:00 9.3 C 5.3 g/m*3 7.33 C 12.9 km/h
179 16-04-2021 16:50:00 9.3 C 5.3 g/m*3 7.33 C 12.9 km/h
180 16-04-2021 16:55:00 9.3 C 5.3 g/m*3 7.85 C 9.7 km/h
181 16-04-2021 17:00:00 9.4 C 5.43 g/m*3 8.28 C 8.1 km/h
182 16-04-2021 17:05:00 9.5 C 5.55 g/m*3 8.4 C 8.1 km/h
183 16-04-2021 17:10:00 9.6 C 5.5 g/m*3 9.6 C 3.2 km/h
184 16-04-2021 17:15:00 9.7 C 5.44 g/m*3 9.7 C 4.8 km/h
185 16-04-2021 17:20:00 9.7 C 5.44 g/m*3 9.7 C 3.2 km/h
186 16-04-2021 17:25:00 9.6 C 5.31 g/m*3 9.6 C 3.2 km/h
187 16-04-2021 17:30:00 9.6 C 5.5 g/m*3 9.6 C 4.8 km/h
188 16-04-2021 17:35:00 9.6 C 5.4 g/m*3 9.6 C 4.8 km/h
189 16-04-2021 17:40:00 9.4 C 5.34 g/m*3 8.68 C 6.4 km/h
190 16-04-2021 17:45:00 9.4 C 5.34 g/m*3 8.68 C 6.4 km/h
191 16-04-2021 17:50:00 9.3 C 5.3 g/m*3 9.3 C 1.6 km/h
192 16-04-2021 17:55:00 9.3 C 5.39 g/m*3 9.3 C 0 km/h
193 16-04-2021 18:00:00 9.3 C 5.3 g/m*3 9.3 C 0 km/h
194 16-04-2021 18:05:00 9.3 C 5.39 g/m*3 9.3 C 0 km/h
195 16-04-2021 18:10:00 9.4 C 5.43 g/m*3 9.4 C 1.6 km/h
196 16-04-2021 18:15:00 9.4 C 5.43 g/m*3 9.4 C 1.6 km/h
197 16-04-2021 18:20:00 9.4 C 5.43 g/m*3 9.4 C 1.6 km/h
198 16-04-2021 18:25:00 9.4 C 5.43 g/m*3 9.4 C 0 km/h
199 16-04-2021 18:30:00 9.4 C 5.43 g/m*3 9.4 C 1.6 km/h
200 16-04-2021 18:35:00 9.4 C 5.43 g/m*3 9.4 C 1.6 km/h
Sensor: Nr:Datum:Temp:Abs-Feuchte:Windchill:Wind:
Aussen-T/F 201 16-04-2021 18:40:00 9.4 C 5.43 g/m*3 9.4 C 0 km/h
202 16-04-2021 18:45:00 9.4 C 5.43 g/m*3 9.4 C 0 km/h
203 16-04-2021 18:50:00 9.4 C 5.43 g/m*3 9.4 C 1.6 km/h
204 16-04-2021 18:55:00 9.3 C 5.48 g/m*3 9.3 C 0 km/h
205 16-04-2021 19:00:00 9.3 C 5.48 g/m*3 9.3 C 0 km/h
206 16-04-2021 19:05:00 9.3 C 5.57 g/m*3 9.3 C 0 km/h
207 16-04-2021 19:10:00 9.3 C 5.48 g/m*3 9.3 C 0 km/h
208 16-04-2021 19:15:00 9.2 C 5.54 g/m*3 9.2 C 0 km/h
209 16-04-2021 19:20:00 9.2 C 5.71 g/m*3 9.2 C 0 km/h
210 16-04-2021 19:25:00 9.2 C 5.54 g/m*3 9.2 C 0 km/h
211 16-04-2021 19:30:00 9.1 C 5.59 g/m*3 9.1 C 0 km/h
212 16-04-2021 19:35:00 9.1 C 5.59 g/m*3 9.1 C 0 km/h
213 16-04-2021 19:40:00 9 C 5.73 g/m*3 9 C 0 km/h
214 16-04-2021 19:45:00 9 C 5.91 g/m*3 9 C 0 km/h
215 16-04-2021 19:50:00 8.9 C 5.87 g/m*3 8.9 C 0 km/h
216 16-04-2021 19:55:00 8.8 C 5.92 g/m*3 8.8 C 0 km/h
217 16-04-2021 20:00:00 8.8 C 6.01 g/m*3 8.8 C 0 km/h
218 16-04-2021 20:05:00 8.7 C 5.97 g/m*3 8.7 C 0 km/h
219 16-04-2021 20:10:00 8.6 C 5.93 g/m*3 8.6 C 0 km/h
220 16-04-2021 20:15:00 8.4 C 5.94 g/m*3 8.4 C 0 km/h
221 16-04-2021 20:20:00 8.2 C 5.86 g/m*3 8.2 C 0 km/h
222 16-04-2021 20:25:00 7.9 C 5.83 g/m*3 7.9 C 0 km/h
223 16-04-2021 20:30:00 7.8 C 5.96 g/m*3 7.8 C 3.2 km/h
224 16-04-2021 20:35:00 7.6 C 5.88 g/m*3 7.6 C 3.2 km/h
225 16-04-2021 20:40:00 7.3 C 5.85 g/m*3 7.3 C 4.8 km/h
Sensor: Nr:Datum:Temp:Abs-Feuchte:Windchill:Wind:
Aussen-T/F 226 16-04-2021 20:45:00 7.2 C 5.89 g/m*3 7.2 C 4.8 km/h
227 16-04-2021 20:50:00 7 C 5.81 g/m*3 7 C 3.2 km/h
228 16-04-2021 20:55:00 6.8 C 5.81 g/m*3 6.8 C 1.6 km/h
229 16-04-2021 21:00:00 6.6 C 5.81 g/m*3 6.6 C 0 km/h
230 16-04-2021 21:05:00 6.4 C 5.74 g/m*3 6.4 C 0 km/h
231 16-04-2021 21:10:00 6.3 C 5.77 g/m*3 6.3 C 0 km/h
232 16-04-2021 21:15:00 6.2 C 5.74 g/m*3 6.2 C 0 km/h
233 16-04-2021 21:20:00 6 C 5.73 g/m*3 6 C 0 km/h
234 16-04-2021 21:25:00 5.9 C 5.77 g/m*3 5.9 C 0 km/h
235 16-04-2021 21:30:00 5.8 C 5.73 g/m*3 5.8 C 0 km/h
236 16-04-2021 21:35:00 5.8 C 5.8 g/m*3 5.8 C 0 km/h
237 16-04-2021 21:40:00 5.8 C 5.8 g/m*3 5.8 C 0 km/h
238 16-04-2021 21:45:00 5.8 C 5.8 g/m*3 5.8 C 0 km/h
239 16-04-2021 21:50:00 5.8 C 5.8 g/m*3 5.8 C 0 km/h
240 16-04-2021 21:55:00 5.8 C 5.87 g/m*3 5.8 C 0 km/h
241 16-04-2021 22:00:00 5.8 C 5.8 g/m*3 5.8 C 0 km/h
242 16-04-2021 22:05:00 5.7 C 5.76 g/m*3 5.7 C 0 km/h
243 16-04-2021 22:10:00 5.6 C 5.8 g/m*3 5.6 C 0 km/h
244 16-04-2021 22:15:00 5.5 C 5.76 g/m*3 5.5 C 0 km/h
245 16-04-2021 22:20:00 5.4 C 5.72 g/m*3 5.4 C 0 km/h
246 16-04-2021 22:25:00 5.4 C 5.79 g/m*3 5.4 C 0 km/h
247 16-04-2021 22:30:00 5.4 C 5.79 g/m*3 5.4 C 0 km/h
248 16-04-2021 22:35:00 5.4 C 5.79 g/m*3 5.4 C 0 km/h
249 16-04-2021 22:40:00 5.4 C 5.86 g/m*3 5.4 C 0 km/h
250 16-04-2021 22:45:00 5.3 C 5.82 g/m*3 5.3 C 0 km/h
Sensor: Nr:Datum:Temp:Abs-Feuchte:Windchill:Wind:
Aussen-T/F 251 16-04-2021 22:50:00 5.3 C 5.82 g/m*3 5.3 C 0 km/h
252 16-04-2021 22:55:00 5.2 C 5.78 g/m*3 5.2 C 0 km/h
253 16-04-2021 23:00:00 5.1 C 5.75 g/m*3 5.1 C 0 km/h
254 16-04-2021 23:05:00 5.1 C 5.75 g/m*3 5.1 C 0 km/h
255 16-04-2021 23:10:00 5.1 C 5.75 g/m*3 5.1 C 0 km/h
256 16-04-2021 23:15:00 5 C 5.78 g/m*3 5 C 0 km/h
257 16-04-2021 23:20:00 5 C 5.78 g/m*3 5 C 0 km/h
258 16-04-2021 23:25:00 4.9 C 5.74 g/m*3 4.9 C 0 km/h
259 16-04-2021 23:30:00 4.8 C 5.7 g/m*3 4.8 C 0 km/h
260 16-04-2021 23:35:00 4.7 C 5.66 g/m*3 4.7 C 0 km/h
261 16-04-2021 23:40:00 4.7 C 5.66 g/m*3 4.7 C 0 km/h
262 16-04-2021 23:45:00 4.6 C 5.62 g/m*3 4.6 C 0 km/h
263 16-04-2021 23:50:00 4.5 C 5.59 g/m*3 4.5 C 0 km/h
264 16-04-2021 23:55:00 4.4 C 5.62 g/m*3 4.4 C 0 km/h

Legende:
   Min
   Max


Maximal/Minimal-Werte vom 16.04.2021 - 16.04.2021

Sensor Min Max Avg
Temp
(Aussen-T/F)
0.2 °C
16-04-2021  02:00:00
9.7 °C
16-04-2021  17:15:00
5.73 °C
Abs-Feuchte
(Aussen-T/F)
4.42 g/m*3
16-04-2021  02:00:00
6.01 g/m*3
16-04-2021  20:00:00
5.15 g/m*3
Windchill
(Aussen-T/F)
0.2 C
16-04-2021  02:00:00
9.7 C
16-04-2021  17:15:00
5.14 C

Die Daten stammen von einer Davis Vantage Pro 2 Wetter-Station und werden unter Linux mit der Software wview2wettercgi und aufbereitet. Alle Angaben erfolgen ohne Gewähr für ihre Vollständigkeit oder Richtigkeit.
Kontakt: Rainer Krienke krienke@uni-koblenz.de . Meine Webseiten an der Uni Koblenz oder privat.
Version: $Revision: 0.78 $